[[{"header":{"parameterUnit":"m.s-1","parameterCategory":2,"la1":30.2991,"la2":30.254,"lo1":-89.0895,"lo2":-89.0444,"dy":0.0017,"dx":0.0017,"nx":28,"ny":28,"refTime":"2024-05-22T03:00:00:Z","depth":"0","parameterNumber":2,"parameterNumberName":"U-component_of_CURRENTS"},"data":[0,0,0,0,0,0,0,0,0,0,0,0,0,0,0,0,0,0,0,0,0,0,0,0,0,0,0,0,0,0,0,0,0,0,0,0,0,0,0,0,0,0,0,0,0,0,0,0,0,0,0,0,0,0,0,0,0,0,0.3395,0.3395,0,0.3424,0.3425,0.3425,0.3411,0.3411,0.341,0.341,0.3417,0.3418,0.3418,0,0,0,0,0,0,0,0,0,0,0,0,0,0.3351,0.3352,0.3395,0.3395,0.3396,0.3424,0.3425,0.3425,0.3411,0.3411,0.341,0.3409,0.3417,0.3418,0.3418,0,0,0,0,0,0,0,0,0,0,0,0,0,0.3372,0.3352,0.3395,0.3395,0.3395,0.3424,0.3425,0.3425,0.3411,0.3411,0.341,0.3409,0.3417,0.3418,0.3418,0.3439,0,0,0.3421,0.3422,0,0,0,0,0,0,0,0,0.3371,0.3373,0.3394,0.3395,0.3396,0.3416,0.3412,0.3429,0.3411,0.3402,0.341,0.3409,0.3417,0.3418,0.3421,0.3439,0.3439,0.3422,0.3422,0.3423,0.3423,0,0,0,0,0,0,0,0.3369,0.3372,0.3403,0.3395,0.3396,0.3402,0.3404,0.3415,0.3411,0.3403,0.3403,0.3411,0.3417,0.342,0.3421,0.3439,0.3421,0.3422,0.3423,0.3423,0.3519,0.3521,0,0,0,0,0,0,0.3371,0.337,0.3403,0.3405,0.3384,0.3404,0.3405,0.3408,0.3411,0.3412,0.3411,0.341,0.3419,0.342,0.3422,0.3473,0.3422,0.3423,0.3424,0.3517,0.3519,0.3521,0,0,0,0,0,0,0.337,0.3373,0.3401,0.3391,0.3395,0.3405,0.3408,0.3409,0.3419,0.3418,0.3418,0.3422,0.3419,0.342,0.3446,0.3472,0.3424,0.3425,0.3514,0.3517,0.352,0.3558,0,0,0,0,0,0,0.3368,0.3372,0.3379,0.3391,0.3396,0.3426,0.3409,0.341,0.3426,0.3424,0.3427,0.3426,0.3418,0.3444,0.3447,0.3472,0.3425,0.3512,0.3516,0.3519,0.3555,0.3562,0.3569,0,0,0,0,0,0.3366,0.3375,0.3379,0.3383,0.3403,0.3428,0.3431,0.3433,0.3427,0.3438,0.3443,0.3427,0.3469,0.3447,0.3449,0.3475,0.351,0.3515,0.3519,0.3551,0.3561,0.3568,0,0,0,0,0,0,0.3357,0.3375,0.3379,0.3392,0.3414,0.3426,0.3437,0.3442,0.3455,0.3453,0.3447,0.3448,0.3484,0.348,0.3455,0.3517,0.349,0.3495,0.3514,0.3522,0.3529,0.3545,0.3426,0,0,0,0,0,0.3361,0.3371,0.3393,0.3405,0.3416,0.343,0.3441,0.3447,0.346,0.3464,0.3467,0.3479,0.3504,0.3511,0.3528,0.3558,0.3586,0.358,0.3587,0.3593,0.3611,0.3688,0.3703,0.3536,0.3536,0.3536,0,0,0.336,0.3373,0.3379,0.3405,0.3418,0.3444,0.3434,0.3456,0.348,0.3465,0.3492,0.3504,0.352,0.3555,0.3571,0.3553,0.3655,0.3599,0.3603,0.3618,0.3694,0.371,0.3725,0.3539,0.3538,0.3538,0,0,0.3368,0.3378,0.3392,0.3415,0.3444,0.3458,0.3469,0.349,0.3499,0.3531,0.3534,0.3568,0.3586,0.3613,0.3627,0.3688,0.3694,0.3689,0.3732,0.3806,0.382,0.3833,0.3884,0.3901,0.3688,0.3688,0.3688,0,0.337,0.3388,0.3402,0.3428,0.3448,0.3467,0.3493,0.3515,0.3542,0.3569,0.3544,0.3619,0.362,0.3692,0.3706,0.3704,0.374,0.3691,0.3815,0.3828,0.3841,0.389,0.3908,0.369,0.369,0.369,0.3689,0,0.3392,0.3411,0.3423,0.3461,0.3488,0.3513,0.3548,0.358,0.3591,0.3619,0.3684,0.3695,0.3746,0.3748,0.3739,0.3836,0.383,0.3817,0.3789,0.386,0.3907,0.3926,0.3693,0.3693,0.3692,0.3691,0,0,0.3379,0.3427,0.3432,0.3457,0.3506,0.3533,0.3584,0.3644,0.3699,0.3721,0.3792,0.3827,0.3846,0.3866,0.3869,0.3918,0.4022,0.3903,0.3906,0.3947,0.4181,0.413,0.4145,0.4032,0.4035,0.4038,0.4175,0,0.339,0.3437,0.3459,0.3512,0.3541,0.3583,0.3635,0.3698,0.3746,0.3823,0.3859,0.3921,0.3889,0.3917,0.3969,0.4025,0.4075,0.3986,0.4113,0.4116,0.4058,0.4166,0.4038,0.4145,0.4193,0.4196,0.4198,0,0.3399,0.3434,0.3478,0.3548,0.3565,0.3605,0.3705,0.3756,0.3871,0.3912,0.3992,0.4023,0.4119,0.4062,0.4205,0.4152,0.4175,0.4195,0.4201,0.4157,0.4101,0.4086,0.4177,0.4086,0.4227,0.4224,0.4222,0,0.3383,0.3445,0.3479,0.3503,0.3587,0.3625,0.3678,0.3788,0.3862,0.3981,0.4062,0.4155,0.4239,0.4284,0.4334,0.4283,0.4479,0.4414,0.4387,0.4383,0.4301,0.4283,0.4315,0.4509,0.4509,0.4509,0.4508,0,0.3382,0.3411,0.3478,0.3502,0.3571,0.3628,0.3722,0.3797,0.3929,0.4037,0.4114,0.422,0.4305,0.4414,0.4406,0.4482,0.455,0.443,0.4433,0.4308,0.4291,0.4227,0.4184,0.4514,0.4513,0.4512,0.4511,0,0.336,0.3393,0.3448,0.3535,0.3562,0.362,0.3747,0.382,0.3957,0.4106,0.4151,0.4334,0.4466,0.4533,0.4638,0.4603,0.4524,0.4636,0.4473,0.4454,0.4291,0.4255,0.4123,0.4001,0.4625,0.4625,0.4624,0,0.335,0.3373,0.3467,0.3501,0.3539,0.3626,0.3681,0.3814,0.3897,0.4159,0.4225,0.4427,0.4522,0.4685,0.4667,0.4681,0.4533,0.456,0.4426,0.4301,0.4264,0.4054,0.3945,0.4334,0.4332,0.4329,0.4328,0,0.3346,0.3377,0.3425,0.3494,0.3548,0.3613,0.3703,0.3781,0.3946,0.4073,0.4248,0.4352,0.4545,0.4529,0.4588,0.4561,0.435,0.4515,0.4445,0.4102,0.382,0.3696,0.4213,0.4309,0.4311,0.4313,0.4314,0.4314,0.334,0.3368,0.3423,0.3478,0.3527,0.3566,0.3571,0.3675,0.378,0.3907,0.4121,0.4202,0.4362,0.442,0.4382,0.4278,0.4209,0.415,0.4139,0.3952,0.3758,0.4224,0.428,0.4281,0.4283,0.4284,0.4285,0,0.3315,0.3341,0.3397,0.3426,0.3422,0.3482,0.354,0.3507,0.3534,0.3706,0.3801,0.3959,0.3975,0.4062,0.4085,0.3954,0.3716,0.3841,0.3536,0.3464,0.3959,0.3871,0.3768,0.3768,0.3768,0.3768,0.3769,0.3769,0.3301,0.3319,0.3333,0.3298,0.3304,0.3223,0.3216,0.3195,0.3253,0.3291,0.3358,0.3487,0.3786,0.3899,0.3815,0.3711,0.3434,0.3262,0.3231,0.3628,0.3655,0.368,0.3588,0.3427,0.3426,0.2573,0.2567,0.2563]},{"header":{"parameterUnit":"m.s-1","parameterCategory":2,"la1":30.2991,"la2":30.254,"lo1":-89.0895,"lo2":-89.0444,"dy":0.0017,"dx":0.0017,"nx":28,"ny":28,"refTime":"2024-05-22T03:00:00:Z","depth":"0","parameterNumber":3,"parameterNumberName":"V-component_of_CURRENTS"},"data":[0,0,0,0,0,0,0,0,0,0,0,0,0,0,0,0,0,0,0,0,0,0,0,0,0,0,0,0,0,0,0,0,0,0,0,0,0,0,0,0,0,0,0,0,0,0,0,0,0,0,0,0,0,0,0,0,0,0,0.0329,0.0329,0,0.0274,0.0273,0.0272,0.0228,0.0228,0.0228,0.0227,0.0118,0.0115,0.0113,0,0,0,0,0,0,0,0,0,0,0,0,0,0.0326,0.0326,0.0329,0.0329,0.0328,0.0274,0.0273,0.0272,0.0228,0.0228,0.0228,0.0227,0.0119,0.0116,0.0112,0,0,0,0,0,0,0,0,0,0,0,0,0,0.0303,0.0327,0.0329,0.0301,0.0298,0.0274,0.0273,0.0272,0.0228,0.0228,0.0227,0.0227,0.012,0.0116,0.0112,0.0096,0,0,0.01,0.0098,0,0,0,0,0,0,0,0,0.0305,0.0303,0.0306,0.0303,0.0299,0.0259,0.0231,0.0211,0.0228,0.0253,0.0227,0.0227,0.0161,0.0154,0.0143,0.0091,0.0086,0.0099,0.0097,0.0095,0.0094,0,0,0,0,0,0,0,0.0306,0.0305,0.0305,0.0305,0.0301,0.0266,0.0263,0.0227,0.0208,0.0251,0.0248,0.0244,0.0159,0.0147,0.014,0.0085,0.01,0.0096,0.0094,0.0092,0.0029,0.003,0,0,0,0,0,0,0.0321,0.0307,0.0307,0.0304,0.0303,0.0267,0.0264,0.0271,0.021,0.0201,0.0245,0.0243,0.0154,0.0145,0.0136,0.0137,0.0095,0.0092,0.0089,0.0028,0.0029,0.003,0,0,0,0,0,0,0.0321,0.0322,0.031,0.0304,0.0301,0.0269,0.0277,0.027,0.0262,0.0206,0.0195,0.0244,0.0153,0.0141,0.0118,0.0131,0.009,0.0086,0.0028,0.0029,0.003,0.0124,0,0,0,0,0,0,0.0321,0.0323,0.0331,0.0306,0.0302,0.0307,0.0277,0.0269,0.0261,0.0258,0.0202,0.0191,0.0152,0.0125,0.0114,0.0125,0.0083,0.0027,0.0028,0.0029,0.012,0.0128,0.0135,0,0,0,0,0,0.0322,0.0341,0.0332,0.0332,0.0316,0.0308,0.0303,0.0276,0.0262,0.0265,0.0232,0.0193,0.0126,0.0122,0.011,0.012,0.0026,0.0028,0.0029,0.0116,0.0126,0.0135,0,0,0,0,0,0,0.034,0.0338,0.0327,0.0344,0.0331,0.0301,0.0301,0.0284,0.026,0.0255,0.0202,0.0189,0.0173,0.0135,0.0133,0.0106,0.0069,0.0068,0.0139,0.0148,0.0156,0.018,0.008,0,0,0,0,0,0.035,0.0365,0.0351,0.0362,0.036,0.0332,0.0324,0.0309,0.0285,0.0274,0.0237,0.0198,0.0169,0.0151,0.0117,0.0103,0.0065,0.01,0.0108,0.0115,0.0127,0.009,0.0096,0.0035,0.0035,0.0035,0,0,0.0358,0.0359,0.0365,0.0366,0.0352,0.0366,0.0326,0.0324,0.0334,0.0265,0.0263,0.0221,0.0171,0.0159,0.0147,0.0129,0.0111,0.0117,0.0123,0.0131,0.0092,0.0098,0.0103,0.0036,0.0036,0.0036,0,0,0.0387,0.0385,0.0409,0.0408,0.0401,0.039,0.0395,0.0373,0.0362,0.0353,0.0311,0.0282,0.0234,0.0206,0.0184,0.0212,0.0153,0.0198,0.0255,0.022,0.0225,0.0228,0.0187,0.0186,0.0202,0.0202,0.0202,0,0.0394,0.0429,0.0412,0.0435,0.0445,0.0409,0.0439,0.0425,0.0397,0.0398,0.0365,0.031,0.0258,0.0253,0.0259,0.0229,0.0199,0.0226,0.0231,0.0234,0.0236,0.0192,0.019,0.0207,0.0206,0.0206,0.0205,0,0.0445,0.0471,0.0485,0.051,0.0516,0.0534,0.0521,0.0521,0.05,0.0484,0.047,0.0401,0.0371,0.0346,0.0307,0.0305,0.0275,0.0246,0.0212,0.0248,0.0199,0.0195,0.0214,0.0212,0.021,0.0209,0,0,0.0471,0.0515,0.052,0.0556,0.0562,0.0581,0.0596,0.0611,0.0644,0.0587,0.0614,0.054,0.0501,0.0474,0.0418,0.0382,0.0357,0.0328,0.0324,0.0293,0.0279,0.026,0.0253,0.0332,0.0332,0.0332,0.0237,0,0.0518,0.0591,0.0595,0.0665,0.0706,0.069,0.072,0.0723,0.0714,0.073,0.065,0.0646,0.0552,0.0542,0.049,0.0404,0.0353,0.0386,0.0242,0.0238,0.0222,0.025,0.0279,0.0198,0.0233,0.0232,0.0232,0,0.0572,0.0619,0.07,0.0771,0.0788,0.0826,0.0884,0.0906,0.0905,0.0895,0.0862,0.0799,0.0738,0.0651,0.0506,0.0535,0.0413,0.0329,0.0323,0.0273,0.0213,0.0166,0.0189,0.0011,0.0225,0.0226,0.0226,0,0.0621,0.0695,0.0772,0.0794,0.0861,0.0901,0.0938,0.0962,0.1016,0.1005,0.1043,0.0936,0.0914,0.0747,0.0557,0.0533,0.0401,0.034,0.0201,0.0198,0.0178,0.0173,0.0019,0.0225,0.0226,0.0226,0.0226,0,0.0682,0.0742,0.0811,0.0856,0.0969,0.098,0.1097,0.1113,0.1166,0.1265,0.1141,0.1186,0.094,0.0829,0.0617,0.0415,0.0437,0.0221,0.0179,0.021,0.021,0.0017,-0.0091,0.0222,0.0223,0.0224,0.0224,0,0.0734,0.0768,0.0871,0.0961,0.1001,0.1087,0.122,0.1307,0.1335,0.1461,0.1464,0.1385,0.1232,0.0974,0.0717,0.0523,0.0197,0.0218,0.0269,0.0235,-0.007,-0.0173,-0.0382,-0.0474,0.0047,0.0046,0.0045,0,0.0772,0.0829,0.0958,0.1039,0.1093,0.122,0.1319,0.1387,0.1495,0.16,0.1675,0.1562,0.1512,0.1123,0.074,0.0367,0.0167,0.0155,0.0101,-0.0073,-0.0219,-0.0297,-0.0364,0.0102,0.0101,0.0101,0.0101,0,0.0854,0.0897,0.0987,0.1147,0.1272,0.1419,0.1567,0.1679,0.1785,0.1894,0.2,0.1964,0.1599,0.1243,0.0736,0.0465,0.0037,0.0138,-0.0052,-0.0192,-0.0275,-0.0386,0.0139,0.0099,0.0099,0.0099,0.01,0.01,0.0921,0.1001,0.1119,0.1274,0.1418,0.1601,0.1732,0.1901,0.2089,0.2259,0.2219,0.2217,0.1734,0.1038,0.0653,0.0014,-0.0016,-0.0177,-0.0289,-0.0354,-0.0434,0.0088,0.001,0.0009,0.0009,0.0009,0.0008,0,0.1006,0.1094,0.124,0.1423,0.1585,0.1648,0.1885,0.2029,0.2259,0.2408,0.2476,0.2264,0.1648,0.1023,0.0169,-0.0298,-0.048,-0.0558,-0.0665,-0.0718,-0.0258,-0.0245,-0.0367,-0.0367,-0.0366,-0.0366,-0.0366,-0.0366,0.1056,0.1194,0.1263,0.1526,0.1659,0.1871,0.2006,0.2226,0.2384,0.2571,0.2598,0.2572,0.2156,0.0611,-0.0432,-0.0695,-0.0997,-0.1081,-0.125,-0.0936,-0.0909,-0.0883,-0.0896,-0.1152,-0.1153,-0.1638,-0.1643,-0.1647]}],[{"header":{"parameterUnit":"m.s-1","parameterCategory":2,"la1":30.2991,"la2":30.254,"lo1":-89.0895,"lo2":-89.0444,"dy":0.0017,"dx":0.0017,"nx":28,"ny":28,"refTime":"2024-05-22T03:00:00:Z","depth":"2","parameterNumber":2,"parameterNumberName":"U-component_of_CURRENTS"},"data":[0,0,0,0,0,0,0,0,0,0,0,0,0,0,0,0,0,0,0,0,0,0,0,0,0,0,0,0,0,0,0,0,0,0,0,0,0,0,0,0,0,0,0,0,0,0,0,0,0,0,0,0,0,0,0,0,0,0,0.3185,0.3186,0,0.3216,0.3216,0.3216,0.3214,0.3214,0.3214,0.3214,0.323,0.323,0.3231,0,0,0,0,0,0,0,0,0,0,0,0,0,0.3141,0.3142,0.3185,0.3186,0.3186,0.3216,0.3216,0.3216,0.3214,0.3214,0.3214,0.3214,0.323,0.323,0.3231,0,0,0,0,0,0,0,0,0,0,0,0,0,0.3162,0.3142,0.3185,0.3191,0.3192,0.3216,0.3216,0.3216,0.3214,0.3214,0.3214,0.3214,0.3229,0.323,0.3231,0.3242,0,0,0.3234,0.3234,0,0,0,0,0,0,0,0,0.3161,0.3163,0.3189,0.3191,0.3192,0.3214,0.3207,0.3225,0.3214,0.3203,0.3214,0.3213,0.3225,0.3226,0.3229,0.3243,0.3244,0.3234,0.3235,0.3235,0.3235,0,0,0,0,0,0,0,0.316,0.3162,0.3194,0.319,0.3192,0.3199,0.3201,0.321,0.3213,0.3204,0.3204,0.3213,0.3225,0.3228,0.3229,0.3244,0.3234,0.3235,0.3235,0.3236,0.3328,0.333,0,0,0,0,0,0,0.3161,0.3161,0.3193,0.3196,0.3179,0.32,0.3202,0.3205,0.3213,0.3215,0.3213,0.3213,0.3227,0.3228,0.323,0.3286,0.3235,0.3236,0.3236,0.3326,0.3329,0.3331,0,0,0,0,0,0,0.316,0.3164,0.3192,0.3182,0.3186,0.3201,0.3204,0.3205,0.3221,0.3221,0.3221,0.3229,0.3226,0.3229,0.3256,0.3285,0.3236,0.3237,0.3324,0.3327,0.333,0.3372,0,0,0,0,0,0,0.3158,0.3163,0.3171,0.3181,0.3187,0.3217,0.3204,0.3206,0.3227,0.3227,0.3234,0.3235,0.3226,0.3255,0.3257,0.3286,0.3238,0.3322,0.3325,0.3329,0.3368,0.3376,0.3383,0,0,0,0,0,0.3157,0.3165,0.3171,0.3176,0.3195,0.3218,0.3222,0.3229,0.3228,0.3241,0.3249,0.3235,0.328,0.3257,0.3259,0.3289,0.332,0.3324,0.3328,0.3365,0.3375,0.3383,0,0,0,0,0,0,0.3149,0.3167,0.3173,0.3186,0.3208,0.3219,0.3232,0.324,0.3256,0.3259,0.3254,0.3256,0.3294,0.329,0.3265,0.3329,0.33,0.3305,0.3327,0.3336,0.3343,0.3358,0.3238,0,0,0,0,0,0.3153,0.3164,0.3185,0.3198,0.3209,0.3225,0.3237,0.3246,0.3261,0.3268,0.3274,0.3288,0.3313,0.3322,0.3338,0.3367,0.339,0.3392,0.3399,0.3405,0.3421,0.3489,0.3503,0.3345,0.3345,0.3345,0,0,0.3154,0.3166,0.3172,0.3198,0.3212,0.3237,0.3231,0.3256,0.3281,0.3268,0.33,0.3314,0.3328,0.3364,0.3381,0.3363,0.3461,0.341,0.3415,0.3428,0.3495,0.351,0.3524,0.3348,0.3347,0.3347,0,0,0.3161,0.3173,0.3186,0.3208,0.324,0.3254,0.3267,0.329,0.3303,0.3338,0.3343,0.3379,0.3399,0.3423,0.3436,0.3496,0.35,0.3501,0.3544,0.361,0.3624,0.3636,0.3678,0.3694,0.3501,0.3501,0.3501,0,0.3164,0.318,0.3196,0.322,0.3241,0.3265,0.329,0.3313,0.3345,0.3372,0.3354,0.3429,0.3432,0.3499,0.3516,0.3513,0.3545,0.3504,0.3619,0.3632,0.3644,0.3685,0.3701,0.3503,0.3503,0.3503,0.3502,0,0.3181,0.3201,0.3213,0.325,0.3278,0.3303,0.334,0.3375,0.3394,0.3423,0.349,0.3503,0.3554,0.3558,0.3551,0.3642,0.3636,0.3622,0.3594,0.3662,0.3701,0.3718,0.3507,0.3506,0.3505,0.3505,0,0,0.3168,0.3214,0.322,0.3244,0.3295,0.332,0.3374,0.3434,0.3488,0.3518,0.3588,0.3627,0.3651,0.367,0.3675,0.372,0.3817,0.3707,0.3709,0.3744,0.3958,0.3902,0.3914,0.3826,0.3829,0.3832,0.3949,0,0.3177,0.3218,0.3242,0.3293,0.3319,0.3365,0.3417,0.3481,0.3533,0.3608,0.3649,0.3713,0.369,0.3722,0.3771,0.3818,0.3865,0.3786,0.3892,0.3896,0.3833,0.3933,0.3614,0.3688,0.3965,0.3968,0.397,0,0.3183,0.3213,0.3254,0.3321,0.3338,0.3379,0.3479,0.3531,0.3645,0.3688,0.3771,0.3807,0.39,0.3854,0.3982,0.3937,0.3959,0.3975,0.3979,0.3926,0.3871,0.3667,0.3708,0.3998,0.3995,0.3993,0.3992,0,0.3161,0.3221,0.3253,0.3275,0.3357,0.3397,0.3452,0.3562,0.3627,0.3755,0.383,0.3926,0.4006,0.4051,0.4098,0.4055,0.4225,0.4167,0.4133,0.4128,0.3878,0.3846,0.4254,0.4254,0.4253,0.4253,0.4253,0,0.3155,0.3182,0.325,0.3271,0.3333,0.3398,0.3486,0.3562,0.3689,0.3783,0.388,0.3971,0.4064,0.4162,0.4161,0.4222,0.4288,0.4172,0.4171,0.3883,0.3852,0.4131,0.4115,0.4257,0.4256,0.4256,0.4255,0,0.3122,0.3159,0.3203,0.329,0.3321,0.3372,0.3494,0.3563,0.37,0.3831,0.388,0.4057,0.4186,0.4259,0.4357,0.4321,0.4355,0.4348,0.3999,0.3955,0.4191,0.4176,0.4325,0.4325,0.4324,0.4324,0.4323,0,0.3103,0.3122,0.3206,0.3235,0.3273,0.3357,0.3414,0.3549,0.362,0.3864,0.3917,0.4116,0.4207,0.4357,0.4329,0.4346,0.439,0.4049,0.3904,0.4223,0.4207,0.4193,0.4179,0.3582,0.3576,0.3571,0.3566,0,0.307,0.31,0.3137,0.3197,0.3252,0.3311,0.3401,0.3451,0.3618,0.3736,0.3887,0.399,0.4171,0.406,0.4123,0.4072,0.4019,0.3945,0.4395,0.362,0.3534,0.3514,0.3523,0.3519,0.3524,0.3528,0.353,0.3532,0.3037,0.3052,0.3097,0.3138,0.32,0.3228,0.3225,0.3317,0.3397,0.3507,0.3713,0.376,0.3833,0.3766,0.3654,0.357,0.3837,0.3639,0.3649,0.3667,0.3568,0.3486,0.3443,0.3447,0.345,0.3453,0.3456,0,0.2985,0.2999,0.3034,0.3056,0.3058,0.3138,0.318,0.3127,0.3131,0.3282,0.3372,0.3174,0.3141,0.3195,0.3008,0.3018,0.2929,0.2879,0.2723,0.2776,0.2822,0.2671,0.2312,0.2308,0.2304,0.23,0,0,0.2954,0.2931,0.2929,0.2876,0.2913,0.2858,0.2844,0.2788,0.2817,0.2775,0.2781,0.3036,0.3149,0.2698,0.2646,0.2441,0.2574,0.2344,0.3279,0.3152,0.3191,0.3299,0.3135,0,0,0,0,0]},{"header":{"parameterUnit":"m.s-1","parameterCategory":2,"la1":30.2991,"la2":30.254,"lo1":-89.0895,"lo2":-89.0444,"dy":0.0017,"dx":0.0017,"nx":28,"ny":28,"refTime":"2024-05-22T03:00:00:Z","depth":"2","parameterNumber":3,"parameterNumberName":"V-component_of_CURRENTS"},"data":[0,0,0,0,0,0,0,0,0,0,0,0,0,0,0,0,0,0,0,0,0,0,0,0,0,0,0,0,0,0,0,0,0,0,0,0,0,0,0,0,0,0,0,0,0,0,0,0,0,0,0,0,0,0,0,0,0,0,0.0214,0.0213,0,0.0162,0.0161,0.016,0.012,0.012,0.012,0.012,0.0017,0.0014,0.0012,0,0,0,0,0,0,0,0,0,0,0,0,0,0.021,0.0211,0.0214,0.0213,0.0213,0.0162,0.0161,0.016,0.012,0.012,0.012,0.012,0.0017,0.0015,0.0011,0,0,0,0,0,0,0,0,0,0,0,0,0,0.0189,0.0211,0.0214,0.0188,0.0185,0.0162,0.0161,0.016,0.0121,0.012,0.012,0.0119,0.0018,0.0015,0.0011,-0.0005,0,0,-0.0,-0.0002,0,0,0,0,0,0,0,0,0.019,0.0189,0.0192,0.019,0.0186,0.0148,0.0122,0.0103,0.0121,0.0144,0.012,0.0119,0.0057,0.005,0.004,-0.001,-0.0014,-0.0001,-0.0003,-0.0005,-0.0006,0,0,0,0,0,0,0,0.0192,0.0191,0.0192,0.0192,0.0188,0.0155,0.0152,0.0118,0.0101,0.0142,0.0139,0.0135,0.0055,0.0044,0.0037,-0.0016,-0.0001,-0.0004,-0.0006,-0.0008,-0.0067,-0.0066,0,0,0,0,0,0,0.0205,0.0193,0.0193,0.019,0.0189,0.0156,0.0153,0.016,0.0102,0.0094,0.0136,0.0134,0.005,0.0042,0.0033,0.0037,-0.0005,-0.0008,-0.001,-0.0067,-0.0067,-0.0066,0,0,0,0,0,0,0.0206,0.0206,0.0195,0.019,0.0187,0.0157,0.0165,0.0159,0.0153,0.0099,0.0089,0.0137,0.005,0.0039,0.0017,0.0031,-0.001,-0.0013,-0.0068,-0.0067,-0.0066,0.0027,0,0,0,0,0,0,0.0206,0.0207,0.0216,0.0192,0.0188,0.0194,0.0165,0.0158,0.0152,0.0148,0.0096,0.0086,0.0049,0.0023,0.0013,0.0025,-0.0016,-0.0069,-0.0068,-0.0067,0.0023,0.0031,0.0038,0,0,0,0,0,0.0206,0.0225,0.0217,0.0217,0.0202,0.0194,0.019,0.0165,0.0152,0.0157,0.0125,0.0088,0.0024,0.0021,0.0009,0.002,-0.007,-0.0068,-0.0067,0.0019,0.0029,0.0038,0,0,0,0,0,0,0.0224,0.0222,0.0213,0.0229,0.0217,0.0189,0.0189,0.0173,0.0151,0.0148,0.0097,0.0085,0.007,0.0033,0.0031,0.0007,-0.0029,-0.003,0.004,0.0049,0.0057,0.0078,-0.002,0,0,0,0,0,0.0234,0.0249,0.0235,0.0246,0.0245,0.0218,0.0212,0.0198,0.0176,0.0166,0.0131,0.0094,0.0067,0.005,0.0017,0.0005,-0.0033,0.0004,0.0011,0.0018,0.0028,-0.0012,-0.0007,-0.0061,-0.0061,-0.0061,0,0,0.0241,0.0243,0.0249,0.0251,0.0238,0.0251,0.0214,0.0213,0.0223,0.0157,0.0157,0.0117,0.0069,0.0058,0.0048,0.003,0.0013,0.002,0.0026,0.0032,-0.001,-0.0005,-0.0,-0.006,-0.006,-0.006,0,0,0.0268,0.0268,0.0291,0.0291,0.0285,0.0275,0.0281,0.0261,0.0251,0.0244,0.0203,0.0177,0.0132,0.0105,0.0084,0.0112,0.0054,0.01,0.0155,0.0116,0.012,0.0124,0.0084,0.0083,0.0104,0.0104,0.0104,0,0.0276,0.0309,0.0294,0.0316,0.0326,0.0294,0.0323,0.031,0.0285,0.0285,0.0256,0.0203,0.0155,0.0149,0.0157,0.0129,0.0099,0.0126,0.0127,0.0129,0.0131,0.0089,0.0087,0.0109,0.0108,0.0108,0.0107,0,0.0324,0.0348,0.0362,0.0387,0.0394,0.0412,0.0401,0.0402,0.0384,0.0369,0.0354,0.0291,0.0262,0.024,0.0205,0.02,0.0173,0.0142,0.0108,0.0142,0.0096,0.0092,0.0116,0.0114,0.0113,0.0111,0,0,0.0348,0.039,0.0396,0.0428,0.0438,0.0455,0.0472,0.0485,0.0513,0.0464,0.0484,0.042,0.0384,0.0359,0.0307,0.027,0.0246,0.0219,0.0215,0.0187,0.0164,0.0138,0.013,0.0219,0.0218,0.0218,0.0128,0,0.0392,0.046,0.0465,0.0532,0.0569,0.0557,0.0585,0.0588,0.0579,0.0588,0.0516,0.051,0.0432,0.0423,0.0372,0.0285,0.024,0.0274,0.0129,0.0125,0.0103,0.0126,0.0148,0.007,0.0124,0.0123,0.0123,0,0.0443,0.0485,0.056,0.0625,0.0641,0.0679,0.0731,0.0751,0.0746,0.0734,0.0703,0.0647,0.0589,0.0514,0.0375,0.0403,0.0293,0.0212,0.0206,0.0148,0.0091,0.0042,0.0059,0.0115,0.0115,0.0116,0.0116,0,0.0485,0.0555,0.0626,0.0647,0.0708,0.0747,0.0782,0.0801,0.0843,0.0833,0.0858,0.0764,0.0738,0.0588,0.0412,0.0396,0.0254,0.0206,0.0075,0.0071,0.0044,0.0039,0.0101,0.0101,0.0101,0.0101,0.0101,0,0.054,0.0596,0.066,0.0702,0.0802,0.0817,0.0919,0.0932,0.0972,0.1049,0.0946,0.0973,0.0758,0.0647,0.0459,0.0265,0.0284,0.0091,0.005,0.0077,0.0076,0.0076,0.0075,0.0098,0.0098,0.0099,0.01,0,0.0582,0.0617,0.0708,0.0792,0.0829,0.0904,0.1021,0.1095,0.1116,0.1212,0.1215,0.1135,0.0994,0.0764,0.0527,0.0349,0.0146,0.0065,0.0111,0.0077,-0.0027,-0.0023,-0.0089,-0.009,-0.0092,-0.0093,-0.0094,0,0.0613,0.0664,0.078,0.085,0.09,0.1013,0.1102,0.1161,0.1247,0.1322,0.1374,0.1272,0.1223,0.0859,0.0517,0.0188,0.0141,-0.0014,-0.0051,-0.0011,-0.0045,-0.0039,-0.0033,-0.0054,-0.0055,-0.0055,-0.0056,0,0.0675,0.0714,0.0794,0.0932,0.1043,0.1174,0.1302,0.1388,0.1478,0.1559,0.1633,0.16,0.1275,0.0945,0.0493,0.0261,0.0038,-0.0034,0.0001,-0.0005,0.0015,-0.0016,-0.001,-0.006,-0.0059,-0.0059,-0.0059,-0.0059,0.0723,0.079,0.0894,0.1028,0.1161,0.1319,0.1434,0.1569,0.1716,0.1845,0.1809,0.1772,0.1411,0.0828,0.0428,0.0001,0.0025,-0.0132,-0.0128,-0.0124,-0.0099,-0.0082,-0.0171,-0.0171,-0.0171,-0.0171,-0.0171,0,0.0788,0.0862,0.0983,0.1147,0.1294,0.1361,0.1561,0.1669,0.185,0.196,0.2017,0.1669,0.1306,0.0877,0.0253,-0.011,-0.0144,-0.024,-0.0194,-0.0187,-0.0181,-0.0158,-0.0247,-0.0248,-0.0249,-0.025,0,0,0.0825,0.0934,0.0991,0.122,0.1352,0.1553,0.1672,0.1824,0.1933,0.203,0.2018,0.1959,0.1449,0.0984,0.0482,0.0121,0.0047,0.0038,0.0139,0.0261,0.0271,-0.0078,-0.0029,0,0,0,0,0]}],[{"header":{"parameterUnit":"m.s-1","parameterCategory":2,"la1":30.2991,"la2":30.254,"lo1":-89.0895,"lo2":-89.0444,"dy":0.0017,"dx":0.0017,"nx":28,"ny":28,"refTime":"2024-05-22T03:00:00:Z","depth":"4","parameterNumber":2,"parameterNumberName":"U-component_of_CURRENTS"},"data":[0,0,0,0,0,0,0,0,0,0,0,0,0,0,0,0,0,0,0,0,0,0,0,0,0,0,0,0,0,0,0,0,0,0,0,0,0,0,0,0,0,0,0,0,0,0,0,0,0,0,0,0,0,0,0,0,0,0,0.2111,0.2112,0,0.219,0.219,0.2191,0.226,0.2261,0.2262,0.2263,0.2361,0.2363,0.2364,0,0,0,0,0,0,0,0,0,0,0,0,0,0.2018,0.2019,0.2111,0.2112,0.2114,0.219,0.2191,0.2191,0.226,0.2261,0.2263,0.2264,0.2361,0.2363,0.2364,0,0,0,0,0,0,0,0,0,0,0,0,0,0.2071,0.2019,0.2111,0.2159,0.2164,0.219,0.2191,0.2192,0.226,0.2262,0.2263,0.2264,0.236,0.2362,0.2365,0.2349,0,0,0.2372,0.2373,0,0,0,0,0,0,0,0,0.2068,0.2074,0.2151,0.2156,0.2162,0.2219,0.2194,0.2246,0.226,0.2221,0.2263,0.2265,0.2316,0.2322,0.233,0.2354,0.2358,0.2373,0.2374,0.2375,0.2376,0,0,0,0,0,0,0,0.2064,0.2071,0.214,0.2152,0.2159,0.2176,0.2185,0.2204,0.2257,0.2224,0.223,0.2242,0.2319,0.2327,0.2333,0.236,0.2372,0.2375,0.2376,0.2377,0.2519,0.2521,0,0,0,0,0,0,0.2058,0.2068,0.2137,0.2142,0.212,0.2176,0.2186,0.2197,0.2257,0.2268,0.2241,0.2245,0.2322,0.233,0.2336,0.2445,0.2375,0.2377,0.2379,0.2517,0.252,0.2522,0,0,0,0,0,0,0.2056,0.2063,0.2134,0.2109,0.212,0.2177,0.2188,0.2198,0.2254,0.227,0.2281,0.2293,0.2324,0.2333,0.2398,0.2445,0.2379,0.2381,0.2514,0.2518,0.2521,0.2584,0,0,0,0,0,0,0.2053,0.2062,0.209,0.2108,0.2121,0.2179,0.2187,0.2198,0.2257,0.2265,0.2317,0.2325,0.2325,0.2394,0.24,0.2447,0.2383,0.2511,0.2516,0.252,0.2579,0.2589,0.2597,0,0,0,0,0,0.2049,0.207,0.209,0.21,0.2149,0.218,0.2189,0.2232,0.2259,0.2288,0.233,0.2326,0.2426,0.2398,0.2404,0.2453,0.2509,0.2515,0.252,0.2574,0.2587,0.2597,0,0,0,0,0,0,0.2046,0.208,0.2102,0.2135,0.2172,0.2194,0.223,0.2257,0.2311,0.2335,0.2349,0.236,0.2436,0.2437,0.2405,0.2509,0.2469,0.2476,0.2509,0.2521,0.253,0.2535,0.2385,0,0,0,0,0,0.2056,0.2086,0.2117,0.215,0.2171,0.221,0.2238,0.2268,0.2307,0.2335,0.2371,0.2414,0.2452,0.2482,0.2511,0.2563,0.2572,0.2602,0.2612,0.262,0.2631,0.2685,0.27,0.2539,0.2539,0.2539,0,0,0.2066,0.209,0.2109,0.2154,0.2187,0.2221,0.2232,0.2286,0.2329,0.2335,0.2419,0.245,0.2475,0.2537,0.2571,0.255,0.2671,0.2626,0.2632,0.2639,0.2692,0.2708,0.2722,0.2543,0.2542,0.2542,0,0,0.2081,0.2122,0.2148,0.2181,0.2239,0.2261,0.2288,0.2338,0.2381,0.2449,0.2472,0.2535,0.2591,0.262,0.2639,0.2719,0.2718,0.2737,0.279,0.2844,0.2857,0.2869,0.2897,0.2911,0.2742,0.2742,0.2742,0,0.2099,0.2128,0.2163,0.2196,0.2231,0.2284,0.2321,0.2366,0.2437,0.2481,0.249,0.2606,0.2628,0.2704,0.2737,0.274,0.2765,0.2741,0.2855,0.2867,0.2878,0.2904,0.2919,0.2746,0.2745,0.2745,0.2745,0,0.2116,0.2162,0.2182,0.2241,0.2284,0.2328,0.2385,0.245,0.251,0.2555,0.266,0.2696,0.2768,0.2786,0.2788,0.2885,0.2875,0.2859,0.2822,0.2898,0.2921,0.2935,0.2751,0.275,0.2749,0.2748,0,0,0.2098,0.2178,0.2193,0.2233,0.2314,0.2348,0.2431,0.2514,0.2586,0.2665,0.2752,0.2828,0.287,0.2895,0.2914,0.296,0.3056,0.2954,0.2955,0.2973,0.3172,0.2974,0.297,0.3068,0.307,0.3073,0.3154,0,0.2109,0.2169,0.2211,0.229,0.2326,0.2405,0.2475,0.2566,0.2647,0.2747,0.2815,0.2905,0.2905,0.2956,0.3008,0.3053,0.3098,0.3035,0.3103,0.3104,0.2913,0.2981,0.3082,0.3165,0.3168,0.317,0.3172,0,0.2105,0.215,0.2218,0.232,0.2346,0.241,0.2543,0.2614,0.2754,0.2824,0.293,0.2986,0.3095,0.3069,0.319,0.3157,0.3179,0.3194,0.3197,0.2999,0.2932,0.3075,0.3197,0.3195,0.3193,0.3191,0.319,0,0.2059,0.2157,0.2214,0.2248,0.2367,0.2435,0.2515,0.2651,0.2726,0.289,0.297,0.3088,0.3177,0.3228,0.3282,0.3255,0.3389,0.3346,0.3183,0.3169,0.3294,0.328,0.3421,0.3421,0.3421,0.3421,0.342,0,0.2028,0.2084,0.221,0.2241,0.2331,0.2431,0.2542,0.2644,0.279,0.2879,0.3019,0.3097,0.3229,0.3313,0.3326,0.3301,0.3432,0.3202,0.3181,0.3318,0.3306,0.3303,0.3288,0.3424,0.3423,0.3422,0.3422,0,0.1955,0.2039,0.2112,0.2253,0.2309,0.2378,0.2544,0.2612,0.2783,0.2904,0.2966,0.3151,0.3259,0.3349,0.3442,0.3345,0.3341,0.3296,0.3448,0.3433,0.3071,0.3059,0.3105,0.3099,0.3094,0.309,0.3086,0,0.1912,0.1943,0.21,0.2148,0.2219,0.2339,0.241,0.2588,0.2659,0.2901,0.294,0.3125,0.322,0.3198,0.3304,0.3311,0.3271,0.3235,0.3132,0.3066,0.3042,0.3038,0.3034,0.3078,0.3076,0.3075,0.3073,0,0.1821,0.1897,0.1958,0.2051,0.2141,0.2219,0.2345,0.2379,0.2576,0.2763,0.2841,0.2894,0.3014,0.3072,0.3114,0.3107,0.3234,0.3179,0.3188,0.3091,0.3033,0.3013,0.3015,0.3055,0.3058,0.306,0.3061,0,0.1757,0.1773,0.1861,0.1926,0.2026,0.206,0.2146,0.2229,0.2323,0.2588,0.2607,0.2803,0.2983,0.2968,0.3002,0.299,0.2929,0.2802,0.283,0.2851,0.2729,0.2615,0.2499,0,0,0,0,0,0.1678,0.1677,0.1724,0.1781,0.1867,0.1931,0.2078,0.2167,0.2366,0.2352,0.2471,0.2562,0.2625,0.2729,0.2664,0.2885,0.2939,0.2794,0.2805,0.2954,0.2975,0.2853,0,0,0,0,0,0,0.1624,0.1665,0.167,0.1638,0.1654,0.1731,0.1818,0.1957,0.1963,0.218,0.2236,0.2398,0.2509,0.2641,0.2615,0.2643,0.2592,0.2919,0.2912,0.2942,0.2961,0.2978,0.286,0,0,0,0,0]},{"header":{"parameterUnit":"m.s-1","parameterCategory":2,"la1":30.2991,"la2":30.254,"lo1":-89.0895,"lo2":-89.0444,"dy":0.0017,"dx":0.0017,"nx":28,"ny":28,"refTime":"2024-05-22T03:00:00:Z","depth":"4","parameterNumber":3,"parameterNumberName":"V-component_of_CURRENTS"},"data":[0,0,0,0,0,0,0,0,0,0,0,0,0,0,0,0,0,0,0,0,0,0,0,0,0,0,0,0,0,0,0,0,0,0,0,0,0,0,0,0,0,0,0,0,0,0,0,0,0,0,0,0,0,0,0,0,0,0,0.011,0.0109,0,0.0076,0.0076,0.0076,0.0048,0.0048,0.0048,0.0047,-0.0029,-0.0031,-0.0033,0,0,0,0,0,0,0,0,0,0,0,0,0,0.0103,0.0103,0.011,0.0109,0.0109,0.0077,0.0076,0.0075,0.0048,0.0048,0.0047,0.0047,-0.0028,-0.0031,-0.0033,0,0,0,0,0,0,0,0,0,0,0,0,0,0.0091,0.0104,0.011,0.0092,0.009,0.0077,0.0076,0.0075,0.0048,0.0048,0.0047,0.0047,-0.0028,-0.003,-0.0033,-0.0043,0,0,-0.0042,-0.0043,0,0,0,0,0,0,0,0,0.0092,0.0091,0.0095,0.0093,0.0091,0.0067,0.0045,0.0034,0.0048,0.0063,0.0047,0.0047,-0.0,-0.0005,-0.0011,-0.0047,-0.005,-0.0042,-0.0043,-0.0045,-0.0045,0,0,0,0,0,0,0,0.0092,0.0092,0.0096,0.0095,0.0092,0.007,0.0068,0.0043,0.0032,0.0062,0.006,0.0058,-0.0002,-0.0009,-0.0013,-0.0051,-0.0042,-0.0044,-0.0046,-0.0047,-0.0088,-0.0087,0,0,0,0,0,0,0.0101,0.0093,0.0097,0.0095,0.0091,0.007,0.0068,0.0074,0.0033,0.0028,0.0058,0.0057,-0.0004,-0.001,-0.0016,-0.0009,-0.0045,-0.0047,-0.0049,-0.0089,-0.0088,-0.0087,0,0,0,0,0,0,0.0101,0.0102,0.0098,0.0093,0.0091,0.0071,0.0078,0.0074,0.0071,0.0031,0.0024,0.006,-0.0004,-0.0012,-0.0028,-0.0013,-0.0048,-0.0051,-0.0089,-0.0088,-0.0088,-0.0008,0,0,0,0,0,0,0.0101,0.0103,0.011,0.0094,0.0092,0.0099,0.0078,0.0073,0.007,0.0068,0.003,0.0023,-0.0005,-0.0023,-0.003,-0.0017,-0.0053,-0.009,-0.0089,-0.0088,-0.0011,-0.0005,0.0001,0,0,0,0,0,0.0101,0.0116,0.0111,0.0111,0.0103,0.01,0.0097,0.008,0.0071,0.0075,0.0052,0.0024,-0.0022,-0.0025,-0.0033,-0.0021,-0.009,-0.0089,-0.0088,-0.0014,-0.0006,0.0001,0,0,0,0,0,0,0.0114,0.0115,0.0108,0.0122,0.0115,0.0096,0.0098,0.0087,0.0072,0.0069,0.0031,0.0022,0.0013,-0.0015,-0.0017,-0.003,-0.0061,-0.0061,-0.0002,0.0005,0.0011,0.0025,-0.0055,0,0,0,0,0,0.0122,0.0134,0.0126,0.0135,0.0136,0.0118,0.0114,0.0105,0.009,0.0083,0.0058,0.0031,0.0011,0.0,-0.0024,-0.003,-0.0067,-0.0029,-0.0022,-0.0017,-0.0012,-0.0052,-0.0048,-0.0083,-0.0083,-0.0083,0,0,0.0128,0.013,0.0135,0.0139,0.0131,0.0144,0.0115,0.0117,0.0127,0.0076,0.0081,0.0051,0.0014,0.0009,0.0003,-0.0012,-0.0026,-0.0015,-0.001,-0.0008,-0.005,-0.0047,-0.0044,-0.0082,-0.0082,-0.0083,0,0,0.0148,0.015,0.0168,0.017,0.0169,0.0163,0.0168,0.0156,0.0151,0.0149,0.0118,0.0098,0.0069,0.0048,0.0033,0.0057,0.0008,0.005,0.0095,0.0057,0.0059,0.0061,0.0022,0.002,0.0055,0.0055,0.0055,0,0.0154,0.018,0.017,0.019,0.02,0.0178,0.0202,0.0196,0.0181,0.018,0.0161,0.0122,0.0087,0.0084,0.0093,0.0072,0.0042,0.0072,0.0065,0.0066,0.0067,0.0026,0.0023,0.0059,0.0059,0.0058,0.0058,0,0.019,0.0211,0.0222,0.0245,0.0254,0.027,0.0267,0.027,0.0259,0.0249,0.024,0.0194,0.0172,0.0158,0.0133,0.0127,0.0102,0.0078,0.0049,0.0075,0.0031,0.0025,0.0065,0.0064,0.0062,0.0061,0,0,0.0204,0.0242,0.0247,0.0273,0.0288,0.0303,0.0322,0.0335,0.0354,0.0324,0.0336,0.0296,0.0268,0.0249,0.0212,0.0179,0.0153,0.0138,0.0134,0.0105,0.007,0.0053,0.0045,0.013,0.013,0.0129,0.0038,0,0.0236,0.0289,0.0299,0.0354,0.0382,0.038,0.0406,0.0412,0.0407,0.0411,0.036,0.0356,0.0306,0.0299,0.0258,0.0181,0.0143,0.018,0.0044,0.004,0.0025,0.0039,0.0128,0.0034,0.0033,0.0032,0.0031,0,0.0271,0.0305,0.0365,0.0419,0.0433,0.0466,0.0508,0.0528,0.0523,0.0514,0.0493,0.0452,0.0407,0.0356,0.0238,0.0266,0.0177,0.0109,0.0104,0.0056,0.0013,-0.0,0.0021,0.0022,0.0023,0.0023,0.0024,0,0.0294,0.0354,0.0408,0.0427,0.0481,0.0514,0.0545,0.0562,0.0591,0.0585,0.0596,0.0529,0.0503,0.0387,0.0247,0.0244,0.0104,0.0077,-0.0024,-0.0027,-0.002,-0.0021,-0.0013,-0.0013,-0.0013,-0.0012,-0.0012,0,0.0327,0.0372,0.043,0.0462,0.0538,0.056,0.0635,0.0649,0.0677,0.0723,0.0659,0.0664,0.051,0.0412,0.0271,0.0111,0.0119,-0.0014,-0.0049,0.0016,0.0019,-0.0024,-0.0024,-0.0016,-0.0015,-0.0014,-0.0014,0,0.0344,0.0379,0.0448,0.052,0.0553,0.0609,0.0704,0.0753,0.0772,0.0827,0.0831,0.0764,0.0643,0.0474,0.0281,0.0155,-0.0007,-0.007,0.0017,-0.0012,-0.012,-0.0115,-0.0186,-0.0187,-0.0188,-0.0189,-0.019,0,0.0357,0.0393,0.0492,0.0545,0.0587,0.0676,0.0741,0.0794,0.085,0.089,0.0914,0.0827,0.0758,0.0483,0.0287,0.0016,-0.0029,-0.0123,-0.0126,-0.0109,-0.0137,-0.013,-0.0123,-0.0192,-0.0192,-0.0192,-0.0192,0,0.0381,0.0417,0.0477,0.0583,0.0667,0.0762,0.086,0.0908,0.0975,0.0991,0.0993,0.0862,0.0722,0.0498,0.0285,0.0087,-0.0067,-0.0135,-0.0135,-0.0138,-0.0117,-0.0142,-0.0134,-0.0196,-0.0196,-0.0195,-0.0195,0,0.0401,0.0444,0.0525,0.0622,0.0726,0.0828,0.0877,0.0953,0.1009,0.1054,0.1049,0.0907,0.0826,0.0534,0.0338,0.0142,0.0085,0.0005,-0.0002,-0.0001,0.0072,0.0127,0.0098,0,0,0,0,0,0.042,0.0474,0.056,0.0671,0.0774,0.084,0.0951,0.0991,0.1058,0.1071,0.1068,0.0943,0.0677,0.0558,0.0362,0.0288,0.0028,0.0045,-0.0072,-0.0218,-0.0213,-0.0162,0,0,0,0,0,0,0.0436,0.0513,0.0558,0.0697,0.0778,0.0898,0.0972,0.1015,0.1023,0.1058,0.0923,0.0875,0.0612,0.0796,0.0355,0.0296,0.0187,-0.0073,-0.0078,-0.022,-0.0216,-0.0213,-0.0158,0,0,0,0,0]}]]